﻿_id,日時,平均風速(m/s),平均風向,最大瞬間風速(m/s),最大風速時風向,気温(℃),湿度(%),10分間移動積算雨量(mm),1時間移動積算雨量(mm),日雨量(mm),累計雨量(mm),日射(日積算)(MJ/m2),日照(日積算)(min),現地気圧(hPa),海面気圧(hPa)
1,2022-01-10T00:00:00,2.3,北北東,4.2,北北東,5.6,89.1,0,0,0,0,9.22,365,1005.8,1020.2
2,2022-01-10T00:01:00,2.3,北北東,3.7,北,5.7,89.3,0,0,0,0,0,0,1005.8,1020.2
3,2022-01-10T00:02:00,2.2,北北東,3.7,北,5.7,89.7,0,0,0,0,0,0,1005.8,1020.2
4,2022-01-10T00:03:00,2,北北東,3.7,北,5.6,89.4,0,0,0,0,0,0,1005.8,1020.2
5,2022-01-10T00:04:00,1.9,北北東,3.7,北,5.6,89.3,0,0,0,0,0,0,1005.8,1020.2
6,2022-01-10T00:05:00,1.7,北北東,3.7,北,5.6,89.6,0,0,0,0,0,0,1005.8,1020.2
7,2022-01-10T00:06:00,1.7,北北東,3.7,北,5.8,90.1,0,0,0,0,0,0,1005.8,1020.2
8,2022-01-10T00:07:00,1.8,北北東,3.7,北,5.8,90.4,0,0,0,0,0,0,1005.8,1020.2
9,2022-01-10T00:08:00,1.7,北北東,3.7,北,5.8,90.3,0,0,0,0,0,0,1005.8,1020.2
10,2022-01-10T00:09:00,1.7,北北東,4,北北東,5.8,90.2,0,0,0,0,0,0,1005.7,1020.1
11,2022-01-10T00:10:00,1.7,北,4,北北東,6,90.7,0,0,0,0,0,0,1005.7,1020
12,2022-01-10T00:11:00,1.6,北,4,北北東,6.1,90.9,0,0,0,0,0,0,1005.7,1020
13,2022-01-10T00:12:00,1.6,北,4,北北東,6.2,91,0,0,0,0,0,0,1005.7,1020
14,2022-01-10T00:13:00,1.6,北,4,北北東,6.3,90.8,0,0,0,0,0,0,1005.7,1020
15,2022-01-10T00:14:00,1.7,北,4,北北東,6.3,90.9,0,0,0,0,0,0,1005.7,1020
16,2022-01-10T00:15:00,1.7,北,4,北北東,6.4,90.9,0,0,0,0,0,0,1005.7,1020
17,2022-01-10T00:16:00,1.7,北,4,北北東,6.4,90.6,0,0,0,0,0,0,1005.8,1020.1
18,2022-01-10T00:17:00,1.7,北,4,北北東,6.2,90.1,0,0,0,0,0,0,1005.7,1020
19,2022-01-10T00:18:00,1.6,北,4,北北東,6,89.5,0,0,0,0,0,0,1005.7,1020
20,2022-01-10T00:19:00,1.5,北,3.5,北,6,89.4,0,0,0,0,0,0,1005.7,1020
21,2022-01-10T00:20:00,1.5,北,3.2,北北東,6,89.4,0,0,0,0,0,0,1005.7,1020
22,2022-01-10T00:21:00,1.5,北,3.2,北北東,6,89.9,0,0,0,0,0,0,1005.7,1020
23,2022-01-10T00:22:00,1.5,北北東,2.8,北北東,5.9,89.8,0,0,0,0,0,0,1005.6,1020
24,2022-01-10T00:23:00,1.6,北北東,3.3,北北東,5.9,89.9,0,0,0,0,0,0,1005.6,1020
25,2022-01-10T00:24:00,1.7,北北東,3.3,北北東,5.9,90.2,0,0,0,0,0,0,1005.7,1020.1
26,2022-01-10T00:25:00,1.7,北北東,3.3,北北東,5.9,90.4,0,0,0,0,0,0,1005.7,1020.1
27,2022-01-10T00:26:00,1.6,北,3.3,北北東,6,90.6,0,0,0,0,0,0,1005.7,1020
28,2022-01-10T00:27:00,1.5,北,3.3,北北東,6,90.9,0,0,0,0,0,0,1005.7,1020
29,2022-01-10T00:28:00,1.5,北,3.3,北北東,6,90.8,0,0,0,0,0,0,1005.8,1020.1
30,2022-01-10T00:29:00,1.5,北北東,3.3,北北東,6,90.9,0,0,0,0,0,0,1005.8,1020.1
31,2022-01-10T00:30:00,1.4,北,3.3,北北東,6.1,90.7,0,0,0,0,0,0,1005.8,1020.1
32,2022-01-10T00:31:00,1.3,北,3.3,北北東,6,91,0,0,0,0,0,0,1005.8,1020.1
33,2022-01-10T00:32:00,1.3,北,3.3,北北東,6,90.7,0,0,0,0,0,0,1005.8,1020.1
34,2022-01-10T00:33:00,1.1,北北西,2.9,北,6.1,90.9,0,0,0,0,0,0,1005.7,1020
35,2022-01-10T00:34:00,1,北北西,2.9,北,6,90.8,0,0,0,0,0,0,1005.8,1020.1
36,2022-01-10T00:35:00,0.9,北北西,2.4,北北東,6.1,90.9,0,0,0,0,0,0,1005.8,1020.1
37,2022-01-10T00:36:00,1,北北西,2.4,北北東,6.1,90.9,0,0,0,0,0,0,1005.7,1020
38,2022-01-10T00:37:00,1,北北西,2.4,北北東,6.1,91,0,0,0,0,0,0,1005.8,1020.1
39,2022-01-10T00:38:00,1.1,北北西,2.4,北北東,6.1,91,0,0,0,0,0,0,1005.8,1020.1
40,2022-01-10T00:39:00,1.1,北西,2.4,北北東,6.2,91,0,0,0,0,0,0,1005.8,1020.1
41,2022-01-10T00:40:00,1.1,北北西,2.4,北西,6.2,90.9,0,0,0,0,0,0,1005.8,1020.1
42,2022-01-10T00:41:00,1.1,北北西,2.4,北西,6.1,90.9,0,0,0,0,0,0,1005.8,1020.1
43,2022-01-10T00:42:00,1.2,北北西,2.4,北西,6,90.5,0,0,0,0,0,0,1005.8,1020.1
44,2022-01-10T00:43:00,1.3,北,2.4,北西,6,90.4,0,0,0,0,0,0,1005.8,1020.1
45,2022-01-10T00:44:00,1.3,北,2.4,北西,6,90.5,0,0,0,0,0,0,1005.8,1020.1
46,2022-01-10T00:45:00,1.4,北,2.5,北北東,5.9,90.7,0,0,0,0,0,0,1005.8,1020.2
47,2022-01-10T00:46:00,1.3,北北東,2.5,北北東,5.9,90.8,0,0,0,0,0,0,1005.7,1020.1
48,2022-01-10T00:47:00,1.3,北北東,2.5,北北東,5.9,90.7,0,0,0,0,0,0,1005.7,1020.1
49,2022-01-10T00:48:00,1.2,北北東,2.5,北北東,6,91.1,0,0,0,0,0,0,1005.8,1020.1
50,2022-01-10T00:49:00,1.1,北北東,2.5,北北東,5.9,91.5,0,0,0,0,0,0,1005.7,1020.1
51,2022-01-10T00:50:00,1.1,北北東,2.5,北北東,5.9,91.4,0,0,0,0,0,0,1005.7,1020.1
52,2022-01-10T00:51:00,1,北,2.5,北北東,5.9,91.5,0,0,0,0,0,0,1005.7,1020.1
53,2022-01-10T00:52:00,0.9,北,2.5,北北東,5.9,91.6,0,0,0,0,0,0,1005.7,1020.1
54,2022-01-10T00:53:00,0.8,北,2.5,北北東,6,91.9,0,0,0,0,0,0,1005.7,1020
55,2022-01-10T00:54:00,0.7,北,2.5,北北東,6,92.1,0,0,0,0,0,0,1005.6,1019.9
56,2022-01-10T00:55:00,0.7,北北西,1.6,北西,6,92.1,0,0,0,0,0,0,1005.6,1019.9
57,2022-01-10T00:56:00,0.7,北北西,2.5,北西,6,92.1,0,0,0,0,0,0,1005.6,1019.9
58,2022-01-10T00:57:00,0.8,北北西,2.5,北西,6,92,0,0,0,0,0,0,1005.6,1019.9
59,2022-01-10T00:58:00,0.8,北北西,2.5,北西,6.1,92.2,0,0,0,0,0,0,1005.6,1019.9
60,2022-01-10T00:59:00,0.8,北北西,2.5,北西,6.1,92,0,0,0,0,0,0,1005.6,1019.9
61,2022-01-10T01:00:00,0.9,北北西,2.5,北西,6.1,91.9,0,0,0,0,0,0,1005.5,1019.8
62,2022-01-10T01:01:00,0.9,北北西,2.5,北西,6.1,91.8,0,0,0,0,0,0,1005.6,1019.9
63,2022-01-10T01:02:00,0.9,北北西,2.5,北西,6,91.6,0,0,0,0,0,0,1005.5,1019.8
64,2022-01-10T01:03:00,1,北北西,2.5,北西,6,91.3,0,0,0,0,0,0,1005.6,1019.9
65,2022-01-10T01:04:00,1,北北西,2.5,北西,6.1,91.4,0,0,0,0,0,0,1005.6,1019.9
66,2022-01-10T01:05:00,1,北北西,2.5,北西,6.1,91.3,0,0,0,0,0,0,1005.6,1019.9
67,2022-01-10T01:06:00,1,北北西,2.2,北北東,5.9,91,0,0,0,0,0,0,1005.5,1019.9
68,2022-01-10T01:07:00,1.1,北,2.5,北,5.9,90.8,0,0,0,0,0,0,1005.5,1019.9
69,2022-01-10T01:08:00,1.2,北,2.5,北,5.9,91.1,0,0,0,0,0,0,1005.6,1020
70,2022-01-10T01:09:00,1.2,北,2.5,北,5.9,91.2,0,0,0,0,0,0,1005.5,1019.9
71,2022-01-10T01:10:00,1.2,北,2.5,北,5.7,90.8,0,0,0,0,0,0,1005.5,1019.9
72,2022-01-10T01:11:00,1.2,北,2.5,北,5.7,90.7,0,0,0,0,0,0,1005.5,1019.9
73,2022-01-10T01:12:00,1.2,北,2.7,北,5.8,91.1,0,0,0,0,0,0,1005.5,1019.9
74,2022-01-10T01:13:00,1.3,北,2.7,北,5.6,91.1,0,0,0,0,0,0,1005.5,1019.9
75,2022-01-10T01:14:00,1.3,北,2.7,北,5.6,91,0,0,0,0,0,0,1005.5,1019.9
76,2022-01-10T01:15:00,1.3,北,2.7,北,5.7,91.6,0,0,0,0,0,0,1005.5,1019.9
77,2022-01-10T01:16:00,1.3,北,2.7,北,5.6,91.7,0,0,0,0,0,0,1005.5,1019.9
78,2022-01-10T01:17:00,1.1,北,2.7,北,5.6,91.6,0,0,0,0,0,0,1005.6,1020
79,2022-01-10T01:18:00,1.1,北,2.7,北,5.7,92,0,0,0,0,0,0,1005.5,1019.9
80,2022-01-10T01:19:00,1.2,北,3.7,北北東,5.6,91.9,0,0,0,0,0,0,1005.5,1019.9
81,2022-01-10T01:20:00,1.3,北,3.7,北北東,5.6,91.9,0,0,0,0,0,0,1005.5,1019.9
82,2022-01-10T01:21:00,1.4,北,3.7,北北東,5.5,91.8,0,0,0,0,0,0,1005.5,1019.9
83,2022-01-10T01:22:00,1.4,北,3.7,北北東,5.7,92.3,0,0,0,0,0,0,1005.5,1019.9
84,2022-01-10T01:23:00,1.4,北,3.7,北北東,5.6,92.7,0,0,0,0,0,0,1005.5,1019.9
85,2022-01-10T01:24:00,1.5,北,3.7,北北東,5.5,92,0,0,0,0,0,0,1005.5,1019.9
86,2022-01-10T01:25:00,1.5,北,3.7,北北東,5.6,92.3,0,0,0,0,0,0,1005.5,1019.9
87,2022-01-10T01:26:00,1.6,北,3.7,北北東,5.7,92.5,0,0,0,0,0,0,1005.5,1019.9
88,2022-01-10T01:27:00,1.7,北北東,3.7,北北東,5.7,92.8,0,0,0,0,0,0,1005.5,1019.9
89,2022-01-10T01:28:00,1.8,北北東,3.7,北北東,5.6,92.5,0,0,0,0,0,0,1005.6,1020
90,2022-01-10T01:29:00,1.8,北北東,3.3,北東,5.8,92.7,0,0,0,0,0,0,1005.6,1020
91,2022-01-10T01:30:00,1.8,北北東,3.3,北東,5.7,92.8,0,0,0,0,0,0,1005.5,1019.9
92,2022-01-10T01:31:00,1.9,北北東,3.4,北東,5.8,92.7,0,0,0,0,0,0,1005.5,1019.9
93,2022-01-10T01:32:00,2,北北東,3.4,北東,5.8,92.8,0,0,0,0,0,0,1005.6,1020
94,2022-01-10T01:33:00,2,北北東,3.4,北東,5.7,92.7,0,0,0,0,0,0,1005.6,1020
95,2022-01-10T01:34:00,2,北北東,3.4,北東,5.6,92,0,0,0,0,0,0,1005.6,1020
96,2022-01-10T01:35:00,2,北北東,3.4,北東,5.5,91.7,0,0,0,0,0,0,1005.6,1020
97,2022-01-10T01:36:00,2,北北東,3.4,北東,5.5,91.7,0,0,0,0,0,0,1005.6,1020
98,2022-01-10T01:37:00,2.1,北東,3.4,北東,5.6,92,0,0,0,0,0,0,1005.6,1020
99,2022-01-10T01:38:00,2.1,北東,3.4,北東,5.7,92.5,0,0,0,0,0,0,1005.6,1020
100,2022-01-10T01:39:00,2.1,北東,3.4,北東,5.6,92.1,0,0,0,0,0,0,1005.6,1020
101,2022-01-10T01:40:00,2,北東,3.4,北東,5.6,92.1,0,0,0,0,0,0,1005.6,1020
102,2022-01-10T01:41:00,1.9,北北東,3.3,北北東,5.7,92.1,0,0,0,0,0,0,1005.6,1020
103,2022-01-10T01:42:00,1.7,北北東,3.1,北東,5.6,92.2,0,0,0,0,0,0,1005.6,1020
104,2022-01-10T01:43:00,1.6,北北東,3.1,北東,5.6,91.8,0,0,0,0,0,0,1005.7,1020.1
105,2022-01-10T01:44:00,1.6,北北東,3.2,北北東,5.7,92,0,0,0,0,0,0,1005.7,1020.1
106,2022-01-10T01:45:00,1.6,北北東,3.2,北北東,5.8,92.1,0,0,0,0,0,0,1005.7,1020.1
107,2022-01-10T01:46:00,1.6,北北東,3.2,北北東,6,92.7,0,0,0,0,0,0,1005.8,1020.1
108,2022-01-10T01:47:00,1.6,北北東,3.2,北北東,5.9,92.2,0,0,0,0,0,0,1005.8,1020.2
109,2022-01-10T01:48:00,1.5,北北東,3.2,北北東,6,92.3,0,0,0,0,0,0,1005.8,1020.1
110,2022-01-10T01:49:00,1.5,北北東,3.2,北北東,6,92.2,0,0,0,0,0,0,1005.8,1020.1
111,2022-01-10T01:50:00,1.6,北北東,3.3,北北東,6.1,92.1,0,0,0,0,0,0,1005.8,1020.1
112,2022-01-10T01:51:00,1.7,北北東,3.3,北北東,6.2,91.9,0,0,0,0,0,0,1005.9,1020.2
113,2022-01-10T01:52:00,1.8,北北東,3.3,北北東,6.2,91.7,0,0,0,0,0,0,1005.8,1020.1
114,2022-01-10T01:53:00,1.8,北北東,3.3,北北東,6.2,91.2,0,0,0,0,0,0,1005.8,1020.1
115,2022-01-10T01:54:00,1.7,北北東,3.3,北北東,6,90.6,0,0,0,0,0,0,1005.8,1020.1
116,2022-01-10T01:55:00,1.7,北北東,3.3,北北東,6,90.3,0,0,0,0,0,0,1005.8,1020.1
117,2022-01-10T01:56:00,1.7,北北東,3.3,北北東,6.2,90.7,0,0,0,0,0,0,1005.8,1020.1
118,2022-01-10T01:57:00,1.7,北北東,3.3,北北東,6.3,90.8,0,0,0,0,0,0,1005.8,1020.1
119,2022-01-10T01:58:00,1.7,北北東,3.3,北北東,6.1,90.5,0,0,0,0,0,0,1005.8,1020.1
120,2022-01-10T01:59:00,1.7,北北東,3.3,北北東,6.2,89.9,0,0,0,0,0,0,1005.8,1020.1
121,2022-01-10T02:00:00,1.7,北,4.4,北西,6.3,90.2,0,0,0,0,0,0,1005.8,1020.1
122,2022-01-10T02:01:00,1.7,北,4.4,北西,6.4,90.1,0,0,0,0,0,0,1005.8,1020.1
123,2022-01-10T02:02:00,1.8,北,5.7,北,6.3,89.9,0,0,0,0,0,0,1005.9,1020.2
124,2022-01-10T02:03:00,1.9,北,5.7,北,6.4,89.6,0,0,0,0,0,0,1005.9,1020.2
125,2022-01-10T02:04:00,2.1,北,5.7,北,6.5,89.5,0,0,0,0,0,0,1005.9,1020.2
126,2022-01-10T02:05:00,2.2,北,5.7,北,6.5,89.5,0,0,0,0,0,0,1005.9,1020.2
127,2022-01-10T02:06:00,2.3,北,5.7,北,6.4,89,0,0,0,0,0,0,1005.9,1020.2
128,2022-01-10T02:07:00,2.3,北,5.7,北,6.3,88.5,0,0,0,0,0,0,1005.9,1020.2
129,2022-01-10T02:08:00,2.3,北北東,5.7,北,6.1,88.2,0,0,0,0,0,0,1005.9,1020.2
130,2022-01-10T02:09:00,2.4,北北東,5.7,北,6.1,88.3,0,0,0,0,0,0,1005.8,1020.1
131,2022-01-10T02:10:00,2.3,北北東,5.7,北,6,88.9,0,0,0,0,0,0,1005.8,1020.1
132,2022-01-10T02:11:00,2.2,北北東,5.7,北,6,88.7,0,0,0,0,0,0,1005.8,1020.1
133,2022-01-10T02:12:00,2.3,北北東,4.1,北北東,6,89.3,0,0,0,0,0,0,1005.9,1020.3
134,2022-01-10T02:13:00,2.2,北北東,4.1,北北東,6.1,89.8,0,0,0,0,0,0,1005.9,1020.2
135,2022-01-10T02:14:00,2,北北東,3.9,北東,6.1,90.1,0,0,0,0,0,0,1005.9,1020.2
136,2022-01-10T02:15:00,1.9,北北東,3.6,北北東,6,89.8,0,0,0,0,0,0,1005.9,1020.3
137,2022-01-10T02:16:00,1.8,北北東,3.6,北北東,6,90,0,0,0,0,0,0,1005.9,1020.3
138,2022-01-10T02:17:00,1.8,北,3.6,北北東,6,90.1,0,0,0,0,0,0,1005.9,1020.3
139,2022-01-10T02:18:00,1.7,北,3.6,北北東,6.1,90.2,0,0,0,0,0,0,1006,1020.3
140,2022-01-10T02:19:00,1.7,北,3.6,北北東,6.2,90.6,0,0,0,0,0,0,1006,1020.3
141,2022-01-10T02:20:00,1.6,北,3.3,北,6.2,90.6,0,0,0,0,0,0,1006,1020.3
142,2022-01-10T02:21:00,1.6,北,3.3,北,6.3,90.6,0,0,0,0,0,0,1006,1020.3
143,2022-01-10T02:22:00,1.5,北北西,3.3,北,6.3,90.4,0,0,0,0,0,0,1006,1020.3
144,2022-01-10T02:23:00,1.5,北北西,3.3,北,6.3,90.3,0,0,0,0,0,0,1006,1020.3
145,2022-01-10T02:24:00,1.5,北北西,3.3,北,6.3,89.9,0,0,0,0,0,0,1006,1020.3
146,2022-01-10T02:25:00,1.5,北北西,4.2,北北西,6.2,89.6,0,0,0,0,0,0,1006,1020.3
147,2022-01-10T02:26:00,1.6,北,4.2,北北西,6.1,89.1,0,0,0,0,0,0,1006,1020.3
148,2022-01-10T02:27:00,1.7,北,4.2,北北西,6.2,89.2,0,0,0,0,0,0,1006,1020.3
149,2022-01-10T02:28:00,1.6,北,4.2,北北西,6.2,89.4,0,0,0,0,0,0,1006.1,1020.4
150,2022-01-10T02:29:00,1.6,北,4.2,北北西,6.1,89.4,0,0,0,0,0,0,1006.1,1020.4
151,2022-01-10T02:30:00,1.6,北,4.2,北北西,6.2,89.6,0,0,0,0,0,0,1006.1,1020.4
152,2022-01-10T02:31:00,1.7,北,4.2,北北西,6.3,89.8,0,0,0,0,0,0,1006.2,1020.5
153,2022-01-10T02:32:00,1.7,北,4.2,北北西,6.4,90.2,0,0,0,0,0,0,1006.2,1020.5
154,2022-01-10T02:33:00,1.8,北北東,4.2,北北西,6.4,90.3,0,0,0,0,0,0,1006.2,1020.5
155,2022-01-10T02:34:00,1.8,北北東,4.2,北北西,6.3,89.9,0,0,0,0,0,0,1006.1,1020.4
156,2022-01-10T02:35:00,1.8,北北東,3.9,北北東,6,89.4,0,0,0,0,0,0,1006.2,1020.6
157,2022-01-10T02:36:00,1.7,北北東,3.1,北北東,5.9,89,0,0,0,0,0,0,1006.2,1020.6
158,2022-01-10T02:37:00,1.6,北,3.1,北北東,6,89.4,0,0,0,0,0,0,1006.2,1020.6
159,2022-01-10T02:38:00,1.7,北,3.1,北北東,6,89.8,0,0,0,0,0,0,1006.2,1020.6
160,2022-01-10T02:39:00,1.6,北北東,3.1,北北東,5.9,90,0,0,0,0,0,0,1006.1,1020.5
161,2022-01-10T02:40:00,1.5,北北東,3.1,北北東,5.9,90,0,0,0,0,0,0,1006.2,1020.6
162,2022-01-10T02:41:00,1.3,北北東,3.1,北北東,6,90.6,0,0,0,0,0,0,1006.1,1020.5
163,2022-01-10T02:42:00,1.2,北,3.1,北北東,5.9,90.8,0,0,0,0,0,0,1006.1,1020.5
164,2022-01-10T02:43:00,1.1,北,3.1,北北東,5.9,90.7,0,0,0,0,0,0,1006.1,1020.5
165,2022-01-10T02:44:00,1,北,3.1,北北東,5.9,91.1,0,0,0,0,0,0,1006.1,1020.5
166,2022-01-10T02:45:00,1,北,3.1,北北東,6,91.6,0,0,0,0,0,0,1006.1,1020.5
167,2022-01-10T02:46:00,0.8,北,2.2,北北東,5.9,91.6,0,0,0,0,0,0,1006.2,1020.6
168,2022-01-10T02:47:00,0.7,北,2.2,北北東,5.9,91.8,0,0,0,0,0,0,1006.2,1020.6
169,2022-01-10T02:48:00,0.7,北,1.6,北,5.9,91.9,0,0,0,0,0,0,1006.2,1020.6
170,2022-01-10T02:49:00,0.7,北,2.2,北東,5.9,92,0,0,0,0,0,0,1006.3,1020.7
171,2022-01-10T02:50:00,0.8,北北東,2.2,北東,5.9,92.1,0,0,0,0,0,0,1006.2,1020.6
172,2022-01-10T02:51:00,0.9,北北東,2.2,北東,6,92.7,0,0,0,0,0,0,1006.2,1020.6
173,2022-01-10T02:52:00,1,北北東,2.2,北東,6,92.5,0,0,0,0,0,0,1006.2,1020.6
174,2022-01-10T02:53:00,1,北北東,2.2,北東,5.8,92.2,0,0,0,0,0,0,1006.2,1020.6
175,2022-01-10T02:54:00,1,北北東,2.2,北東,5.8,92.2,0,0,0,0,0,0,1006.2,1020.6
176,2022-01-10T02:55:00,1.1,北北東,2.2,北東,5.8,92.4,0,0,0,0,0,0,1006.2,1020.6
177,2022-01-10T02:56:00,1.2,北北東,2.2,北東,5.8,92.6,0,0,0,0,0,0,1006.2,1020.6
178,2022-01-10T02:57:00,1.3,北北東,2.2,北東,5.8,92.5,0,0,0,0,0,0,1006.2,1020.6
179,2022-01-10T02:58:00,1.3,北北東,2.2,北東,5.7,92.8,0,0,0,0,0,0,1006.2,1020.6
180,2022-01-10T02:59:00,1.2,北北東,2.1,北東,5.6,92.4,0,0,0,0,0,0,1006.2,1020.6
181,2022-01-10T03:00:00,1.1,北,2.1,北東,5.7,92.8,0,0,0,0,0,0,1006.2,1020.6
182,2022-01-10T03:01:00,1,北,2.1,北東,5.7,92.8,0,0,0,0,0,0,1006.2,1020.6
183,2022-01-10T03:02:00,1,北,2.1,北東,5.7,93,0,0,0,0,0,0,1006.2,1020.6
184,2022-01-10T03:03:00,1.1,北北東,2.1,北東,5.7,93.1,0,0,0,0,0,0,1006.2,1020.6
185,2022-01-10T03:04:00,1,北北東,2.1,北東,5.6,93.2,0,0,0,0,0,0,1006.2,1020.6
186,2022-01-10T03:05:00,1,北北東,2.5,北東,5.6,93.2,0,0,0,0,0,0,1006.2,1020.6
187,2022-01-10T03:06:00,1,北北東,2.5,北東,5.7,93.7,0,0,0,0,0,0,1006.2,1020.6
188,2022-01-10T03:07:00,1.1,北北東,2.5,北東,5.6,93.6,0,0,0,0,0,0,1006.2,1020.6
189,2022-01-10T03:08:00,1.1,北北東,2.5,北東,5.7,93.8,0,0,0,0,0,0,1006.2,1020.6
190,2022-01-10T03:09:00,1.1,北北東,2.5,北東,5.7,94,0,0,0,0,0,0,1006.2,1020.6
191,2022-01-10T03:10:00,1.1,北北東,2.5,北東,5.9,93.9,0,0,0,0,0,0,1006.3,1020.7
192,2022-01-10T03:11:00,1.2,北北東,2.5,北東,6,94.3,0,0,0,0,0,0,1006.2,1020.6
193,2022-01-10T03:12:00,1.2,北北東,2.5,北東,6,94.4,0,0,0,0,0,0,1006.2,1020.6
194,2022-01-10T03:13:00,1.1,北,2.5,北東,6,94.2,0,0,0,0,0,0,1006.2,1020.6
195,2022-01-10T03:14:00,1.1,北,2.5,北東,5.9,93.8,0,0,0,0,0,0,1006.2,1020.6
196,2022-01-10T03:15:00,1,北,2.4,北,5.8,93.3,0,0,0,0,0,0,1006.2,1020.6
197,2022-01-10T03:16:00,1,北,2.4,北,5.8,93.2,0,0,0,0,0,0,1006.2,1020.6
198,2022-01-10T03:17:00,0.9,北,2.1,北,5.9,92.9,0,0,0,0,0,0,1006.3,1020.7
199,2022-01-10T03:18:00,0.8,北北西,2.1,北,5.9,92.8,0,0,0,0,0,0,1006.2,1020.6
200,2022-01-10T03:19:00,0.8,北北西,2.1,北,5.9,92.9,0,0,0,0,0,0,1006.2,1020.6
201,2022-01-10T03:20:00,0.8,北北西,2.1,北,5.9,92.7,0,0,0,0,0,0,1006.2,1020.6
202,2022-01-10T03:21:00,0.8,北北西,1.7,北,5.9,92.5,0,0,0,0,0,0,1006.2,1020.6
203,2022-01-10T03:22:00,0.8,北北西,1.7,北,5.9,92.5,0,0,0,0,0,0,1006.2,1020.6
204,2022-01-10T03:23:00,0.8,北北西,1.7,北,5.8,92.4,0,0,0,0,0,0,1006.1,1020.5
205,2022-01-10T03:24:00,0.7,北北西,1.7,北,5.7,91.9,0,0,0,0,0,0,1006.2,1020.6
206,2022-01-10T03:25:00,0.7,北北西,1.6,北西,5.7,92.1,0,0,0,0,0,0,1006.2,1020.6
207,2022-01-10T03:26:00,0.8,北北西,1.6,北西,5.7,92,0,0,0,0,0,0,1006.2,1020.6
208,2022-01-10T03:27:00,0.7,北北西,1.6,北西,5.6,92,0,0,0,0,0,0,1006.2,1020.6
209,2022-01-10T03:28:00,0.8,北北西,1.6,北西,5.6,92.2,0,0,0,0,0,0,1006.2,1020.6
210,2022-01-10T03:29:00,0.8,北,1.6,北西,5.6,92.4,0,0,0,0,0,0,1006.2,1020.6
211,2022-01-10T03:30:00,0.7,北,1.6,北西,5.6,92.6,0,0,0,0,0,0,1006.1,1020.5
212,2022-01-10T03:31:00,0.6,北,1.4,北,5.7,93.3,0,0,0,0,0,0,1006.2,1020.6
213,2022-01-10T03:32:00,0.6,北,1.4,北,5.7,93.1,0,0,0,0,0,0,1006.2,1020.6
214,2022-01-10T03:33:00,0.7,北北東,1.4,北,5.8,93.2,0,0,0,0,0,0,1006.2,1020.6
215,2022-01-10T03:34:00,0.7,北北東,1.4,北,5.7,93.4,0,0,0,0,0,0,1006.2,1020.6
216,2022-01-10T03:35:00,0.6,北北東,1.4,北,5.6,93.1,0,0,0,0,0,0,1006.2,1020.6
217,2022-01-10T03:36:00,0.6,北,1.3,北北東,5.5,93,0,0,0,0,0,0,1006.2,1020.6
218,2022-01-10T03:37:00,0.7,北,1.3,北北東,5.5,93.3,0,0,0,0,0,0,1006.2,1020.6
219,2022-01-10T03:38:00,0.6,北,1.2,北北東,5.5,93.3,0,0,0,0,0,0,1006.2,1020.6
220,2022-01-10T03:39:00,0.6,北,1.2,北北東,5.5,93.6,0,0,0,0,0,0,1006.2,1020.6
221,2022-01-10T03:40:00,0.5,北,1.2,北北東,5.5,93.4,0,0,0,0,0,0,1006.1,1020.5
222,2022-01-10T03:41:00,0.5,北,1.2,北北東,5.4,93.5,0,0,0,0,0,0,1006.1,1020.5
223,2022-01-10T03:42:00,0.5,北,1.2,北北東,5.4,93.7,0,0,0,0,0,0,1006.1,1020.5
224,2022-01-10T03:43:00,0.4,北,1.2,北北東,5.5,94,0,0,0,0,0,0,1006.2,1020.6
225,2022-01-10T03:44:00,0.3,北,1.1,北西,5.5,94.2,0,0,0,0,0,0,1006.2,1020.6
226,2022-01-10T03:45:00,0.3,北,1.1,北西,5.5,94.4,0,0,0,0,0,0,1006.2,1020.6
227,2022-01-10T03:46:00,0.3,北,1.1,北西,5.5,94.2,0,0,0,0,0,0,1006.2,1020.6
228,2022-01-10T03:47:00,0.2,静穏,0.8,北西,5.5,94.5,0,0,0,0,0,0,1006.1,1020.5
229,2022-01-10T03:48:00,0.2,静穏,0.9,西南西,5.4,94.4,0,0,0,0,0,0,1006.2,1020.6
230,2022-01-10T03:49:00,0.2,静穏,0.9,西南西,5.4,94.1,0,0,0,0,0,0,1006.2,1020.6
231,2022-01-10T03:50:00,0.1,静穏,0.9,西南西,5.4,94.5,0,0,0,0,0,0,1006.2,1020.6
232,2022-01-10T03:51:00,0.2,静穏,0.9,西南西,5.4,94.6,0,0,0,0,0,0,1006.2,1020.6
233,2022-01-10T03:52:00,0.2,静穏,0.9,西南西,5.4,94.8,0,0,0,0,0,0,1006.1,1020.5
234,2022-01-10T03:53:00,0.2,静穏,0.9,西南西,5.5,95,0,0,0,0,0,0,1006.1,1020.5
235,2022-01-10T03:54:00,0.3,北,0.9,西南西,5.5,95.2,0,0,0,0,0,0,1006.1,1020.5
236,2022-01-10T03:55:00,0.3,北,0.9,西南西,5.5,95.4,0,0,0,0,0,0,1006.2,1020.6
237,2022-01-10T03:56:00,0.4,北,1.6,北東,5.6,95.3,0,0,0,0,0,0,1006.2,1020.6
238,2022-01-10T03:57:00,0.5,北北東,1.8,北東,5.6,95.4,0,0,0,0,0,0,1006.2,1020.6
239,2022-01-10T03:58:00,0.6,北北東,1.8,北東,5.5,95.3,0,0,0,0,0,0,1006.1,1020.5
240,2022-01-10T03:59:00,0.7,北北東,1.8,北東,5.6,95.4,0,0,0,0,0,0,1006.1,1020.5
241,2022-01-10T04:00:00,0.7,北北東,1.8,北東,5.5,95.3,0,0,0,0,0,0,1006.1,1020.5
242,2022-01-10T04:01:00,0.8,北北東,1.8,北東,5.5,95.3,0,0,0,0,0,0,1006.1,1020.5
243,2022-01-10T04:02:00,0.9,北北東,1.8,北東,5.5,95.3,0,0,0,0,0,0,1006.1,1020.5
244,2022-01-10T04:03:00,0.9,北北東,1.8,北東,5.5,95.3,0,0,0,0,0,0,1006.1,1020.5
245,2022-01-10T04:04:00,0.9,北北東,1.8,北東,5.6,95.4,0,0,0,0,0,0,1006.1,1020.5
246,2022-01-10T04:05:00,1,北北東,1.8,北東,5.6,95.4,0,0,0,0,0,0,1006.1,1020.5
247,2022-01-10T04:06:00,1,北北東,1.8,北東,5.5,95.4,0,0,0,0,0,0,1006.1,1020.5
248,2022-01-10T04:07:00,0.9,北北東,1.6,北,5.5,95.3,0,0,0,0,0,0,1006.1,1020.5
249,2022-01-10T04:08:00,0.8,北北東,1.6,北,5.6,95.3,0,0,0,0,0,0,1006.1,1020.5
250,2022-01-10T04:09:00,0.8,北北東,1.7,北,5.6,95.4,0,0,0,0,0,0,1006,1020.4
251,2022-01-10T04:10:00,0.8,北北東,1.7,北,5.7,95.6,0,0,0,0,0,0,1006,1020.4
252,2022-01-10T04:11:00,0.8,北北東,1.7,北,5.6,95.5,0,0,0,0,0,0,1006.1,1020.5
253,2022-01-10T04:12:00,0.9,北北東,2,北東,5.6,95.4,0,0,0,0,0,0,1006.1,1020.5
254,2022-01-10T04:13:00,0.9,北北東,2,北東,5.6,95.4,0,0,0,0,0,0,1006.1,1020.5
255,2022-01-10T04:14:00,1,北北東,2.4,北,5.5,95.5,0,0,0,0,0,0,1006.1,1020.5
256,2022-01-10T04:15:00,1,北北東,2.4,北,5.6,95.4,0,0,0,0,0,0,1006.1,1020.5
257,2022-01-10T04:16:00,1,北,2.4,北,5.6,95.5,0,0,0,0,0,0,1006.1,1020.5
258,2022-01-10T04:17:00,1.1,北,2.4,北,5.7,95.5,0,0,0,0,0,0,1006.2,1020.6
259,2022-01-10T04:18:00,1.1,北北東,2.4,北,5.7,95.5,0,0,0,0,0,0,1006.1,1020.5
260,2022-01-10T04:19:00,1,北北東,2.4,北,5.5,95.4,0,0,0,0,0,0,1006.1,1020.5
261,2022-01-10T04:20:00,1,北北東,2.4,北,5.5,95.2,0,0,0,0,0,0,1006.2,1020.6
262,2022-01-10T04:21:00,1,北,2.4,北,5.4,95.2,0,0,0,0,0,0,1006.1,1020.5
263,2022-01-10T04:22:00,0.8,北,2.4,北,5.4,95.1,0,0,0,0,0,0,1006.1,1020.5
264,2022-01-10T04:23:00,0.8,北,2.4,北,5.5,95.2,0,0,0,0,0,0,1006.1,1020.5
265,2022-01-10T04:24:00,0.7,北北東,2.3,北北東,5.5,95.4,0,0,0,0,0,0,1006.2,1020.6
266,2022-01-10T04:25:00,0.6,北北東,1.7,北東,5.4,95.4,0,0,0,0,0,0,1006.2,1020.6
267,2022-01-10T04:26:00,0.6,北北東,1.7,北東,5.4,95.1,0,0,0,0,0,0,1006.1,1020.5
268,2022-01-10T04:27:00,0.6,北北東,1.7,北東,5.5,95.3,0,0,0,0,0,0,1006.1,1020.5
269,2022-01-10T04:28:00,0.6,北北東,1.7,北東,5.4,95.5,0,0,0,0,0,0,1006.1,1020.5
270,2022-01-10T04:29:00,0.6,北北東,1.7,北東,5.4,95.3,0,0,0,0,0,0,1006.2,1020.6
271,2022-01-10T04:30:00,0.6,北北東,1.7,北東,5.5,95.4,0,0,0,0,0,0,1006.2,1020.6
272,2022-01-10T04:31:00,0.7,北東,1.7,北東,5.5,95.5,0,0,0,0,0,0,1006.2,1020.6
273,2022-01-10T04:32:00,0.7,北東,1.9,北東,5.5,95.5,0,0,0,0,0,0,1006.2,1020.6
274,2022-01-10T04:33:00,0.8,北東,1.9,北東,5.5,95.4,0,0,0,0,0,0,1006.2,1020.6
275,2022-01-10T04:34:00,0.9,北東,1.9,北東,5.5,95.4,0,0,0,0,0,0,1006.2,1020.6
276,2022-01-10T04:35:00,0.9,北東,1.9,北東,5.5,95.4,0,0,0,0,0,0,1006.2,1020.6
277,2022-01-10T04:36:00,1,北東,1.9,北東,5.5,95.4,0,0,0,0,0,0,1006.2,1020.6
278,2022-01-10T04:37:00,1.1,北東,2.3,北東,5.5,95.5,0,0,0,0,0,0,1006.2,1020.6
279,2022-01-10T04:38:00,1.3,北東,2.4,北東,5.5,95.4,0,0,0,0,0,0,1006.2,1020.6
280,2022-01-10T04:39:00,1.4,北東,2.4,北東,5.5,95.5,0,0,0,0,0,0,1006.2,1020.6
281,2022-01-10T04:40:00,1.5,北東,2.4,北東,5.6,95.4,0,0,0,0,0,0,1006.3,1020.7
282,2022-01-10T04:41:00,1.5,北東,2.4,北東,5.5,95.4,0,0,0,0,0,0,1006.3,1020.7
283,2022-01-10T04:42:00,1.5,北東,2.4,北東,5.5,95.3,0,0,0,0,0,0,1006.3,1020.7
284,2022-01-10T04:43:00,1.5,北北東,2.4,北東,5.3,95,0,0,0,0,0,0,1006.2,1020.6
285,2022-01-10T04:44:00,1.5,北北東,2.4,北東,5.5,95,0,0,0,0,0,0,1006.2,1020.6
286,2022-01-10T04:45:00,1.4,北北東,2.4,北東,5.4,95.2,0,0,0,0,0,0,1006.3,1020.7
287,2022-01-10T04:46:00,1.4,北北東,2.7,北東,5.3,94.8,0,0,0,0,0,0,1006.3,1020.7
288,2022-01-10T04:47:00,1.4,北北東,2.8,北東,5.6,95.2,0,0,0,0,0,0,1006.3,1020.7
289,2022-01-10T04:48:00,1.5,北北東,3,北東,5.5,95.2,0,0,0,0,0,0,1006.3,1020.7
290,2022-01-10T04:49:00,1.6,北北東,3.1,北東,5.5,94.9,0,0,0,0,0,0,1006.3,1020.7
291,2022-01-10T04:50:00,1.6,北北東,3.1,北東,5.4,94.8,0,0,0,0,0,0,1006.3,1020.7
292,2022-01-10T04:51:00,1.8,北東,3.1,北東,5.4,94.8,0,0,0,0,0,0,1006.3,1020.7
293,2022-01-10T04:52:00,1.9,北東,3.1,北東,5.3,94.4,0,0,0,0,0,0,1006.3,1020.7
294,2022-01-10T04:53:00,2,北東,3.1,北東,5.4,94.8,0,0,0,0,0,0,1006.4,1020.8
295,2022-01-10T04:54:00,2.1,北東,3.1,北東,5.3,94.4,0,0,0,0,0,0,1006.4,1020.8
296,2022-01-10T04:55:00,2.3,北東,3.2,北北東,5.3,94.4,0,0,0,0,0,0,1006.4,1020.8
297,2022-01-10T04:56:00,2.4,北東,3.2,北北東,5.4,94.6,0,0,0,0,0,0,1006.4,1020.8
298,2022-01-10T04:57:00,2.5,北東,3.2,北北東,5.4,94.7,0,0,0,0,0,0,1006.4,1020.8
299,2022-01-10T04:58:00,2.5,北東,3.2,北北東,5.3,94.3,0,0,0,0,0,0,1006.4,1020.8
300,2022-01-10T04:59:00,2.5,北東,3.2,北北東,5.5,94.6,0,0,0,0,0,0,1006.4,1020.8
301,2022-01-10T05:00:00,2.5,北東,3.2,北北東,5.4,94.7,0,0,0,0,0,0,1006.4,1020.8
302,2022-01-10T05:01:00,2.4,北東,3.2,北北東,5.4,94.7,0,0,0,0,0,0,1006.4,1020.8
303,2022-01-10T05:02:00,2.4,北東,3.2,北北東,5.4,94.2,0,0,0,0,0,0,1006.4,1020.8
304,2022-01-10T05:03:00,2.3,北東,3.2,北北東,5.4,94.3,0,0,0,0,0,0,1006.5,1020.9
305,2022-01-10T05:04:00,2.2,北東,3.2,北北東,5.5,94.3,0,0,0,0,0,0,1006.4,1020.8
306,2022-01-10T05:05:00,2.1,北東,3.1,北東,5.4,94.3,0,0,0,0,0,0,1006.4,1020.8
307,2022-01-10T05:06:00,2,北東,3.1,北東,5.4,94.1,0,0,0,0,0,0,1006.4,1020.8
308,2022-01-10T05:07:00,1.9,北東,3.1,北東,5.4,94,0,0,0,0,0,0,1006.4,1020.8
309,2022-01-10T05:08:00,1.9,北東,3.1,北東,5.5,94.3,0,0,0,0,0,0,1006.4,1020.8
310,2022-01-10T05:09:00,1.9,北東,3,北東,5.3,94.1,0,0,0,0,0,0,1006.4,1020.8
311,2022-01-10T05:10:00,1.8,北東,3,北東,5.3,93.7,0,0,0,0,0,0,1006.4,1020.8
312,2022-01-10T05:11:00,1.8,北東,3,北東,5.3,93.7,0,0,0,0,0,0,1006.4,1020.8
313,2022-01-10T05:12:00,1.8,北東,3,北東,5.5,94.3,0,0,0,0,0,0,1006.4,1020.8
314,2022-01-10T05:13:00,1.8,北東,3,北東,5.4,93.8,0,0,0,0,0,0,1006.4,1020.8
315,2022-01-10T05:14:00,1.9,北東,3,北東,5.4,93.8,0,0,0,0,0,0,1006.4,1020.8
316,2022-01-10T05:15:00,1.9,北東,3,北東,5.4,93.7,0,0,0,0,0,0,1006.4,1020.8
317,2022-01-10T05:16:00,1.9,北東,2.9,北東,5.3,93.5,0,0,0,0,0,0,1006.4,1020.8
318,2022-01-10T05:17:00,1.9,北東,2.9,北東,5.4,93.6,0,0,0,0,0,0,1006.4,1020.8
319,2022-01-10T05:18:00,1.9,北東,2.9,北東,5.4,94,0,0,0,0,0,0,1006.4,1020.8
320,2022-01-10T05:19:00,2,北東,3.1,北東,5.5,93.9,0,0,0,0,0,0,1006.4,1020.8
321,2022-01-10T05:20:00,2,北東,3.1,北東,5.5,93.7,0,0,0,0,0,0,1006.4,1020.8
322,2022-01-10T05:21:00,2,北東,3.1,北東,5.3,93.5,0,0,0,0,0,0,1006.4,1020.8
323,2022-01-10T05:22:00,1.9,北東,3.1,北東,5.5,93.6,0,0,0,0,0,0,1006.4,1020.8
324,2022-01-10T05:23:00,1.9,北東,3.1,北東,5.4,93.6,0,0,0,0,0,0,1006.5,1020.9
325,2022-01-10T05:24:00,1.8,北東,3.1,北東,5.3,93.1,0,0,0,0,0,0,1006.4,1020.8
326,2022-01-10T05:25:00,1.8,北東,3.1,北東,5.3,93,0,0,0,0,0,0,1006.4,1020.8
327,2022-01-10T05:26:00,1.8,北東,3.1,北東,5.4,93.4,0,0,0,0,0,0,1006.4,1020.8
328,2022-01-10T05:27:00,1.7,北北東,3.1,北東,5.2,93.2,0,0,0,0,0,0,1006.5,1020.9
329,2022-01-10T05:28:00,1.7,北北東,3.1,北東,5.2,93,0,0,0,0,0,0,1006.5,1020.9
330,2022-01-10T05:29:00,1.6,北北東,2.7,北東,5.1,92.8,0,0,0,0,0,0,1006.5,1020.9
331,2022-01-10T05:30:00,1.6,北北東,2.7,北東,5.3,93.6,0,0,0,0,0,0,1006.5,1020.9